AirNav   Get $300 off a Bose A20 Aviation Headset
 
 1604 users online  

CA84 Torrey Pines Gliderport
San Diego, California, USA

GOING TO SAN DIEGO?


FAA INFORMATION EFFECTIVE 12 SEPTEMBER 2019

Location

FAA Identifier: CA84
Lat/Long: 32-53-23.0000N 117-14-49.0000W
32-53.383333N 117-14.816667W
32.8897222,-117.2469444
(estimated)
Elevation: 372 ft. / 113 m (estimated)
Variation: 13E (1985)
From city: 11 miles NW of SAN DIEGO, CA
Time zone: UTC -7 (UTC -8 during Standard Time)
Zip code: 92037

Gliderport Operations

Gliderport use: Private use. Permission required prior to landing
Activation date: 11/1961
Control tower: no
ARTCC: LOS ANGELES CENTER
FSS: SAN DIEGO FLIGHT SERVICE STATION
Attendance: UNATNDD
Wind indicator: no
Segmented circle: no

Gliderport Communications

WX ASOS at MYF (7 nm SE): 126.9 (858-576-4337)
WX ASOS at SAN (10 nm S): PHONE 619-296-8934
WX AWOS-3P at SEE (14 nm E): 125.45 (619-449-1228)
WX ASOS at CRQ (14 nm N): PHONE 760-930-0864
WX ASOS at RNM (19 nm NE): 132.025 (760-789-0736)

Nearby radio navigation aids

VOR radial/distance  VOR name  Freq  Var
MZBr335/6.5MISSION BAY VORTAC117.8015E
PGYr307/21.5POGGI VORTAC116.4514E
OCNr143/22.7OCEANSIDE VORTAC115.3015E
TIJr311/25.7TIJUANA VOR/DME116.5014E
JLIr231/36.5JULIAN VORTAC114.0015E

Gliderport Services

Airframe service: NONE
Powerplant service: NONE

Runway Information

Runway 9/27

Dimensions: 1500 x 30 ft. / 457 x 9 m
Surface: asphalt
RUNWAY 9  RUNWAY 27
Traffic pattern: leftleft
Obstructions: nonetrees, 100 ft. from runway

Gliderport Ownership and Management from official FAA records

Ownership: Publicly-owned
Owner: CITY OF SAN DIEGO
Manager: JIM FROST
4740 HARBINSON AVE
LA MESA, CA 91941
Phone 619-461-9614
WORK PHONE 619-535-9505 EXT 1585

Additional Remarks

GLIDER PORT IS LEASED FM CITY TO THE ASSOCD GLIDER CLUB OF SOUTHERN CALIF FOR STUDENT TRAINING & RIDGE SOARING.
ALL ACFT ARE TRAILERED GLIDERS.
ROLLING RWY .6 PERCENT GRADIENT.
EXTENSIVE HANG GLIDER OPERATIONS ON WEEKENDS AND WEEKDAYS.
FOR CD CTC LOS ANGELES ARTCC AT 661-575-2079.

Instrument Procedures

There are no published instrument procedures at CA84.

Some nearby airports with instrument procedures:

KNKX - Miramar MCAS (Joe Foss Field) Airport (5 nm E)
KMYF - Montgomery-Gibbs Executive Airport (7 nm SE)
KSAN - San Diego International Airport (10 nm S)
KNZY - North Island Naval Air Station (Halsey Field) (12 nm S)
KSEE - Gillespie Field Airport (14 nm E)
KCRQ - Mc Clellan-Palomar Airport (14 nm N)
KRNM - Ramona Airport (19 nm NE)
 
Loc | Ops | Rwys | IFR | FBO | Links
Com | Nav | Svcs | Stats | Notes
Area around CA84 (Torrey Pines Gliderport)
 
Road maps at: MapQuest Bing Google
 
Aerial photo
WARNING: Photo may not be current or correct
Aerial photo of CA84 (Torrey Pines Gliderport)
Photo by Doug Fronius
Photo taken 13-Mar-2004
from a 1942 Schweizer TG-2 sailplane.

Do you have a better or more recent aerial photo of Torrey Pines Gliderport that you would like to share? If so, please send us your photo.

 
Sectional chart

 
Airport distance calculator
Flying to Torrey Pines Gliderport? Find the distance to fly.

From to CA84

Sunrise and sunset
Times for 17-Sep-2019
 Local
(UTC-7)
 Zulu
(UTC)
Morning civil twilight06:1013:10
Sunrise06:3513:35
Sunset18:5201:52
Evening civil twilight19:1702:17

Current date and time
Zulu (UTC)  17-Sep-2019 14:37:14
Local (UTC-7)  17-Sep-2019 07:37:14
 
METAR
KNKX 
6nm E 
171402Z 08003KT 6SM HZ SCT008 18/15 A2996 RMK AO2 T01780150
KMYF 
7nm SE 
171353Z 00000KT 9SM CLR 18/16 A2997 RMK AO2 SLP143 T01780161
KSAN 
10nm S 
171418Z VRB05KT 10SM SCT017 21/17 A2998 RMK AO2 T02060172
KNZY 
11nm S 
171352Z 25003KT 10SM BKN017 19/16 A2995 RMK AO2 SLP142 T01940161
KCRQ 
15nm N 
171407Z AUTO 00000KT 9SM BKN014 19/16 A2996 RMK AO2 T01890156
KSEE 
15nm E 
171347Z 00000KT 10SM SKC 18/15 A2997
KRNM 
19nm NE 
171353Z AUTO 00000KT 10SM CLR 11/08 A2998 RMK AO2 SLP142 T01060078
TAF
KNKX 
6nm E 
1709/1809 VRB05KT 9999 BKN011 QNH2990INS TEMPO 1710/1716 4800 BR OVC005 FM171630 25009KT 9999 SCT015 SCT250 QNH2994INS BECMG 1806/1808 VRB05KT 9999 OVC012 QNH2996INS T17/1712Z T28/1722Z
KSAN 
10nm S 
171124Z 1712/1818 VRB04KT P6SM SCT014 TEMPO 1712/1716 BKN013 FM171600 27005KT P6SM SCT015 FM172000 27009KT P6SM SKC FM180200 VRB04KT P6SM SCT015 FM180900 VRB04KT P6SM BKN015 FM181600 VRB05KT P6SM SCT015
KNZY 
11nm S 
1710/1807 VRB06KT 9999 SCT011 BKN100 QNH2986INS TEMPO 1710/1715 9000 BR BKN011 BKN080 FM171500 27009KT 9999 SCT012 QNH2991INS TEMPO 1715/1721 VRB06KT BKN012 FM172100 VRB06KT 9999 SCT015 QNH2984INS TEMPO 1801/1807 BKN012 T18/1712Z T25/1723Z AMD 1027 FS30145
KCRQ 
15nm N 
171124Z 1712/1812 VRB04KT P6SM SCT011 TEMPO 1713/1716 BKN011 FM171600 VRB04KT P6SM SCT012 FM172100 25008KT P6SM SKC FM180200 VRB04KT P6SM FEW012 FM180900 VRB04KT P6SM BKN010
NOTAMs
Click for the latest NOTAMs
NOTAMs are issued by the DoD/FAA and will open in a separate window not controlled by AirNav.

 

 
 

Would you like to see your business listed on this page?

 If your business provides an interesting product or service to pilots, flight crews, aircraft, or users of the Torrey Pines Gliderport, you should consider listing it here.  To start the listing process, click on the button below
 
Add a business
 

Other Pages about Torrey Pines Gliderport

www.agcsc.org/torrey_pines_info.html
 
Update a link
 
Copyright © AirNav, LLC. All rights reserved. Privacy Policy  Contact